星链-35682(STARLINK-35682)

导读

STARLINK-35682是美国SpaceX星链互联网星座的一员,于2025年11月15日发射入轨。星链项目旨在构建全球覆盖的低轨卫星互联网,为偏远地区、海事、航空等场景提供宽带服务,该卫星延续了星链批量部署的思路,进一步扩充星座规模,提升全球网络覆盖密度与服务能力。

Basic Information
目录编号:
66467
目录名称:
STARLINK-35682
国际标识:
2025-262M
轨道中心:
EARTH
卫星名称:
星链-35682
卫星全名:
星链-35682(STARLINK-35682)
卫星状态:
在轨 (已飞行293 天)
发射日期:
2025-11-15 UTC
国别 :
美国 (US)
星等 :
--
Orbit Information
数据来源 国际轨道数据
星历时间: 2026-09-04T00:28:50+0800
15小时前
查看轨道信息
半长轴: 6861.167km
偏心率: 0.0001972
轨道倾角: 43.002°
近地点辐角 270.084°
升交点赤经 11.376°
平近点角 89.979°
近地点: 481.676km
远地点: 484.384km
周期: 94.266分钟
每日圈数: 15.275867
Detailed Information
固有亮度:
5
最大亮度:
2.5
卫星平台:
Starlink V1.0
覆盖范围:
全球
运营商:
太空探索技术公司
运营商所在国:
美国
制造商(研发单位):
太空探索技术公司
制造商所在国:
美国
使用方式:
暂无
Satellite Introduction
Starlink 计划是 SpaceX 推出的全球卫星互联网项目,通过发射低轨道卫星,为全球尤其是偏远地区提供高速、低延迟的互联网服务。自 2019 年起,Starlink 已部署数千颗卫星,旨在缩小全球数字鸿沟,推动互联网普及。该项目还为军事、航空等行业提供通信支持,带来广泛经济效益。
2D Orbit Map
3D Orbit Map
Orbit Altitude Analysis Chart
Orbit Inclination Analysis Chart
Orbit Comprehensive Analysis Chart
View Comprehensive Chart
Conjunction Data List
Event ID Objects TCA Miss Dist (km) Collision Risk Probability Collision Risk Index (CRI) Action
CDM_260905-142605-747606-646721
2026-09-05T
14:26:29+0000
0.281 km
中距离
3.010238E-4 高风险 0.85
CDM_260905-023505-710106-646721
2026-09-05T
02:35:08+0000
0.394 km
远距离
9.905798E-5 中风险 0.75
CDM_260904-225705-867306-646721
2026-09-04T
22:57:27+0000
1.111 km
极远距离
1.400456E-5 中风险 0.58
CDM_260905-155905-547206-646721
2026-09-05T
15:59:15+0000
1.019 km
极远距离
7.107824E-6 低风险 0.52
CDM_260905-003105-867306-646721
2026-09-05T
00:31:36+0000
1.396 km
极远距离
6.391413E-6 低风险 0.51
CDM_260905-135105-867306-646721
2026-09-05T
13:51:54+0000
1.729 km
极远距离
3.256473E-6 低风险 0.45
CDM_260905-121705-867306-646721
2026-09-05T
12:17:45+0000
1.773 km
极远距离
3.026801E-6 低风险 0.45
CDM_260905-045605-710106-646721
2026-09-05T
04:56:21+0000
1.364 km
极远距离
2.045953E-6 低风险 0.41
CDM_260905-032205-710106-646721
2026-09-05T
03:22:12+0000
2.020 km
极远距离
7.24661E-7 极低风险 0.32
CDM_260905-164705-747606-646721
2026-09-05T
16:47:43+0000
2.690 km
极远距离
6.925195E-7 极低风险 0.32